Timeline UpdatesTrip UpdatesNews PostsPvt PostsTravel TipsAdmin PostsConv PostsFollowed PostsChat RequestsBlog PostsPNR Posts

Disclaimer
Search
 
 
Fri Apr 25, 2014 04:00:50 ISTHomeTrainsΣChainsAtlasPNRForumGalleryNewsFAQTripsMembersLoginFeedback
No Recent News for this Train
Other Trains in the News **new
Latest...
Temporary Stoppage at Mahadevsal Station every Sunday and Monday from 23.07.2013 to 21.08.2013 during Shravani Melaa
Tue Jul 23, 2013 (10:09AM)
⇐ Return Journey: Train# 18029

18030/Shalimar-Mumbai LTT [Kurla] Express

Jul 01 2013 (4:41PM)
Change Departure Station:
Change Arrival Station:
Post a Train Travel TipPost a Train Travel Tip **new
Post a Comment/Question/Picture/VideoPost a Comment/Question/Picture/Video
Pantry/Catering
✕ NO Pantry Car
✓ Catering Avbl
RSA - Rake Sharing
Rake/Coach Composition
LOCO-HCPV-HCPV-SLR-GS-S13-S12-S11-S10-S9-S8-S7-S6-S5-S4-S3-S2-S1-B1-A1-GS-SLR-HCPV-HCPV
Loco
WAP-4 of Howrah shed (ER)
News    PNR    Forum    Time-Table    Availability    Fare Chart    Map    Arr/Dep History    Trips    Gallery    ΣChains    X/O    Timeline    
Travel Time: 0h 34m    0 halts    Distance: 39 km    Avg Speed: 68 km/hr
Type: Mail/Express
Zone: SER/South Eastern
Departs @ 17:50 (Avg 3m late)
Platform# ???
SMTWTFS
Kharagpur Junction/KGP 
Arrives @ 18:24 (Avg 7m late)
Platform# ???
SMTWTFS
Jhargram/JGM 

0 halts. 5 intermediate Stations between Kharagpur Junction and Jhargram

Show ALL intermediate Stations  Show Old Time-Table

#CodeStation NameX/OArrivesAvgDepartsAvgHaltPFDay#KmSpeedElevZoneAddress
1SHMKolkata Shalimar (2)  -15:00+011-112.3265mSERSHIBPUR . DIST- Howrah, West Bengal
2SRCKolkata Santragachi Junction (6)  15:11+715:12+81m11-107.6627mSERDist: Howrah - 711104, West Bengal
3ULBUluberia (6)O  15:36+1115:37+131m11-82.84910mSERdist - howrah, West Bengal
4MCAMecheda (6)X  16:09+816:10+201m--1-56.82610mSERdist - purba Medinipur, West Bengal
5PKUPanskura Junction (6)X  16:39+716:40+201m--1-44.4489mSERPanskura, West Bengal
6KGP»Kharagpur Junction (10)»X  17:35+417:50+315m--10.06942mSERKharagpur, West Bengal
7JGM•Jhargram (4)•X  18:24+718:25+81m--139.18082mSERJhargram, West Bengal
8CKUChakulia  18:47+518:48+61m--168.380126mSERChakulia, Jharkhand
9GTSGhatsila (3)  19:11+419:12+51m--198.955103mSEREast Singhbhum, Jharkhand
10GUDGaludih (4)  19:23+419:24+51m--1108.941120mSEREast Singhbhum, Jharkhand
11RHERakha Mines  19:34+319:35+41m--1115.839118mSEREast Singhbhum, Jharkhand
12TATATatanagar Junction (5)X  20:05+320:10+55m--1135.162164mSER91-657-2423026, Jharkhand
13SINISini Junction  20:36+1220:37+121m--1162.057182mSERNational Highway 33, Jharkhand
14RKSNRajkharsawan Junction  20:53+1120:54+121m--1177.371189mSERWest Singhbhum district, Jharkhand
15CKPChakradharpur (3)X  21:11+1321:16+135m11197.384235mSERChakradharpur (West Singhbhum), Jharkhand
16SWRSonuaX  21:31+1721:32+181m--1218.364287mSERSonua, Jharkhand
17GOLGoilkeraX  21:44+1721:45+181m--1231.155333mSERGoilkera, Jharkhand
18MOUManoharpur  22:15+1722:16+181m--1258.677228mSERManoharpur, Jharkhand
19BNDMBondamunda (3)  22:42+1822:43+181m--1291.920213mSERRourkela, Odisha
20ROURourkela Junction (5)X  23:03+1523:13+1610m21298.466198mSERRourkela, Odisha
21GPRaj Gangpur (3)  23:40+1823:41+191m11328.274237mSERRaj Ganpur, Odisha
22BMBBamra (3)  00:09+1500:10+171m--2362.855259mSERBamra PH : 06642-229268, Odisha
23JSGJharsuguda Junction (5)X  00:50+500:55+85m12399.378236mSERJharsuguda, Odisha
24BRJNBrajrajnagarX  01:04+1601:05+191m--2411.059212mSECRBrajrajnagar, Odisha
25BPHBelpahar  01:14+1901:15+211m--2419.985235mSECRBelpahar, Odisha
26RIGRaigarh (3)  01:51+2301:56+265m--2471.089220mSECRRaigarh, Chhattisgarh
27KHSKharsia  02:19+3402:20+351m--2504.971259mSECRNational Highway 200, Chhattisgarh
28SKTSakti (4)  02:33+3502:34+361m--2520.376237mSECRJanjgir-Champa, Chhattisgarh
29CPHChampa Junction (3)X  02:58+4003:03+395m--2550.765264mSECRNational Highway 200 (07819-245767), Chhattisgarh
30NIANailaX  03:13+3803:14+391m--2561.669273mSECRJanjgir, Chhattisgarh
31AKTAkaltara (4)  03:27+3803:28+391m--2576.529284mSECRDist. Janjgir Champa, Chhattisgarh
32BSPBilaspur Junction (8)  04:25+1104:45+1520m32603.749271mSECRBilaspur, Chhattisgarh
33BYLBelha  05:04+1605:05+171m--2619.377269mSECRCollege Road, Chhattisgarh
34BYTBhatapara (4)  05:29+1905:30+201m--2649.982270mSECRBanjari Road, Chhattisgarh
35TLDTilda (3)  05:49+2005:50+211m12676.051291mSECRBanjari Rd, Chhattisgarh
36RRaipur Junction (6)X  06:35+1706:45+1910m12714.270297mSECRRaipur, Chhattisgarh
37DBECDevbaloda CharodaX  07:02+1907:03+201m--2734.135310mSECRBhilai, Chhattisgarh
38BIABhilaiX  07:09+1807:10+191m--2737.540309mSECRBhilai, Chhattisgarh
39BPHBBhilai Power House (3)X  07:17+1707:18+181m--2742.224312mSECRBhilai, Chhattisgarh
40BQRBhilai Nagar (2)X  07:29+1407:30+151m--2746.618298mSECRBhilai, Chhattisgarh
41DURGDurg Junction (6)X  07:45+1007:55+1110m--2751.187299mSECRPh: 91-788-2322059, Chhattisgarh
42RJNRaj Nandgaon (3)  08:16+2308:21+245m--2781.582313mSECRRajnandgaon, Chhattisgarh
43DGGDongargarh (2)  08:44+3008:45+341m--2813.160353mSECRDongargarh, Chhattisgarh
44SKSSalekasa (2)  09:21+3709:22+381m--2848.874312mSECRRajnandgaon, Chhattisgarh
45AGNAmgaon (2)  09:34+3809:35+411m--2863.646317mSECRGondia, Maharashtra
46GGondia Junction (7)X  10:05+3510:15+3910m--2886.488316mSECRGondia 441601, Maharashtra
47TROTirora (3)X  10:35+4410:36+471m--2915.768282mSECRDist Gondiya, Maharashtra
48TMRTumsar Road (3)X  10:54+4510:55+471m--2936.063267mSECRBhandara, Maharashtra
49BRDBhandara Road (2)  11:12+4711:13+481m--2954.076266mSECRState Highway 252, Maharashtra
50KPKamptee (3)X  11:51+4811:52+491m--21001.931290mSECRMH 441001, Maharashtra
51ITRItwari (3)O  12:12+4712:13+511m--21012.44306mSECRNagpur, Maharashtra
52NGPNagpur Junction (9)X  13:15+1513:40+1425m721016.223314mCRNagpur 440001, Maharashtra
53AJNIAjni (3)  13:48+2013:49+221m--21019.282310mCRNagpur 440003, Maharashtra
54SNISindi (2)  14:21+2414:22+261m--21063.157258mCRWardha, Maharashtra
55SEGMSewagram Junction (5)X  14:53+2114:54+221m--21092.420264mCRWardha, Maharashtra
56WRWardha Junction  15:02+1915:05+193m221095.084289mCRWardha 442001, Maharashtra
57PLOPulgaon Junction (3)  15:26+2215:27+231m221124.670273mCRPulgaon, Maharashtra
58DMNDhamangaon (2)  15:44+2215:45+241m--21144.562300mCRDhamangaon, Maharashtra
59CNDChandur (2)X  16:01+2016:02+211m--21161.230331mCRAmravati Distt, Maharashtra
60BDBadnera Junction (4)  17:00+1117:05+125m121190.090335mCRBadnera (Amravati) 444701, Maharashtra
61MZRMurtizapur (3)  17:33+1917:35+202m--21231.774303mCRMurtajapur, Maharashtra
62AKAkola Junction (7)  18:05+2018:10+205m121268.986284mCRAkola-444001, Maharashtra
63PSParas (2)  18:24+2318:25+261m--21288.974281mCRAkola, Maharashtra
64SEGShegaon (2)  18:39+2718:40+301m--21306.182276mCRShegaon 444203, Maharashtra
65JMJalamb Junction (3)X  18:49+3218:50+331m--21318.582259mCRJalamb, Maharashtra
66NNNanduraX  18:59+3519:00+371m--21330.770267mCRNandura, Maharashtra
67MKUMalkapur (2)X  19:24+3519:25+361m121358.662252mCRMalkapur, Maharashtra
68BDWDBodwadX  19:44+3619:45+371m--21378.240294mCRBodwad, Maharashtra
69BSLBhusaval Junction (8)X  20:30+2920:45+2915m521408.560208mCRBhusaval 425201, Maharashtra
70JLJalgaon Junction (4)  21:09+3321:10+341m221432.684213mCRJalgaon 425001, Maharashtra
71PCPachora Junction (4)X  21:44+3721:45+391m--21480.393264mCRPachora 424201, Maharashtra
72CSNChalisgaon Junction (3)  22:14+4222:15+441m--21525.187352mCRChalisgaon 424101, Maharashtra
73NGNNandgaon (3)  22:44+4622:45+481m--21567.356476mCRNandgaon, Maharashtra
74MMRManmad Junction (6)  23:12+5023:15+523m321592.777580mCRManmad 423104, Maharashtra
75LSLasalgaon (3)X  23:34+5223:35+531m--21617.266592mCRLasalgaon, Maharashtra
76NKNasik Road (3)X  00:19+3600:20+391m331665.438563mCRNashik 422101, Maharashtra
77DVLDevlali (3)X  00:29+4500:30+471m231671.234561mCRDist. Nashik 422401, Maharashtra
78IGPIgatpuri (4)XO  01:49+2501:50+321m--31716.118589mCRIgatpuri 422403, Maharashtra
79KSRAKasara (4)X  02:39+3102:40+331m--31730.558290mCRDist. Thane 421602, Maharashtra
80KYNKalyan Junction (8)  03:50+3703:55+1:115m631797.98710mCRKalyan 421301, Maharashtra
81TNAThane (10)  04:09+4904:10+511m831818.12510mCRThane, Maharashtra
82LTTMumbai Lokmanya Tilak Terminus (5)  04:50+36-331834.6-7mCRMumbai, Maharashtra
Scroll to Top
Scroll to Bottom